Date String (YYYY-MM-DD hh:mm:ss) UTC,Instrument flags,Ambient pressure (hPa),Sample flow (lpm),Bypass flow (lpm),Sample temperature (°C),Ambient temperature (°C),ASC tube jacket temperature (°C),LED temperature (°C),Box temperature (°C),Sample RH (%),Span deviation,Mass concentration (μg/m³),Mass concentration (μg/m³),Mass concentration (μg/m³)
DateTimeUTC,F1_M11,P_M11,Q1_M11,Q2_M11,T1_M11,T2_M11,T3_M11,T4_M11,T5_M11,U1_M11,ZSPAN_M11,X2_M11,X0_M11,X1_M11
2023-05-18 18:00:00,,0831.6,4.99,0.00,29.7,28.3,00.0,38.0,31.4,28.3,0000.3,0008.81,0012.49,0008.09
2023-05-18 18:01:00,,0831.5,5.01,0.00,29.7,28.3,00.0,38.0,31.4,28.1,0000.4,0008.78,0012.43,0008.08
2023-05-18 18:02:00,,0831.5,5.01,0.00,29.7,28.4,00.0,38.0,31.4,28.2,0000.3,0008.74,0012.34,0008.05
2023-05-18 18:03:00,,0831.5,4.99,0.00,29.7,28.4,00.0,38.0,31.4,28.0,0000.1,0008.74,0012.26,0008.06
2023-05-18 18:04:00,,0831.5,4.99,0.00,29.8,28.4,00.0,38.0,31.4,28.1,0000.0,0008.76,0012.32,0008.09
2023-05-18 18:05:00,,0831.5,5.02,0.00,29.8,28.4,00.0,38.1,31.4,28.1,0000.3,0008.70,0012.14,0008.09
2023-05-18 18:06:00,,0831.5,4.99,0.00,29.8,28.4,00.0,38.1,31.4,28.3,0000.5,0008.72,0012.30,0008.09
2023-05-18 18:07:00,,0831.5,4.99,0.00,29.8,28.5,00.0,38.1,31.5,28.4,0000.3,0008.78,0012.53,0008.09
2023-05-18 18:08:00,,0831.5,4.99,0.00,29.8,28.5,00.0,38.1,31.5,28.4,0000.4,0008.80,0012.43,0008.12
2023-05-18 18:09:00,,0831.5,4.99,0.00,29.8,28.5,00.0,38.1,31.5,28.4,0000.0,0008.80,0012.37,0008.14
2023-05-18 18:10:00,,0831.5,5.01,0.00,29.9,28.5,00.0,38.1,31.5,28.4,-000.2,0008.87,0012.50,0008.19
2023-05-18 18:11:00,,0831.5,5.00,0.00,29.9,28.3,00.0,38.1,31.5,28.5,-000.1,0008.92,0012.72,0008.22
2023-05-18 18:12:00,,0831.5,5.00,0.00,29.8,26.6,00.0,38.1,31.3,28.5,0000.1,0008.96,0012.88,0008.24
2023-05-18 18:13:00,,0831.4,5.01,0.00,29.7,25.5,00.0,38.0,31.0,28.9,-000.2,0009.04,0013.05,0008.28
2023-05-18 18:14:00,,0831.4,5.00,0.00,29.6,25.3,00.0,37.9,30.8,29.4,0000.1,0009.12,0013.22,0008.31
2023-05-18 18:15:00,,0831.4,5.00,0.00,29.5,25.6,00.0,37.9,30.8,30.3,0000.1,0009.15,0013.31,0008.30
2023-05-18 18:16:00,,0831.4,5.01,0.00,29.5,25.9,00.0,37.9,30.8,30.6,0000.2,0009.20,0013.43,0008.30
2023-05-18 18:17:00,,0831.3,4.99,0.00,29.4,26.3,00.0,37.9,30.9,30.1,0000.0,0009.14,0013.45,0008.24
2023-05-18 18:18:00,,0831.3,5.00,0.00,29.4,26.6,00.0,37.9,30.9,30.2,0000.3,0009.08,0013.79,0008.13
2023-05-18 18:19:00,,0831.3,5.00,0.00,29.4,26.8,00.0,37.9,30.9,29.0,-000.0,0008.89,0013.78,0007.90
2023-05-18 18:20:00,,0831.2,5.00,0.00,29.3,27.0,00.0,37.8,30.8,29.0,-000.1,0008.71,0013.66,0007.68
2023-05-18 18:21:00,,0831.1,4.99,0.00,29.3,27.1,00.0,37.8,30.8,29.5,-000.0,0008.55,0013.51,0007.52
2023-05-18 18:22:00,,0831.1,5.00,0.00,29.3,27.2,00.0,37.8,30.8,29.9,0000.4,0008.37,0013.61,0007.36
2023-05-18 18:23:00,,0831.1,5.01,0.00,29.3,27.2,00.0,37.8,30.8,29.9,0000.7,0008.20,0014.15,0007.18
2023-05-18 18:24:00,,0831.1,5.00,0.00,29.3,27.2,00.0,37.8,30.8,30.2,0001.2,0008.02,0013.98,0006.98
2023-05-18 18:25:00,,0831.1,5.01,0.00,29.2,27.3,00.0,37.8,30.7,29.8,0001.5,0007.74,0013.94,0006.71
2023-05-18 18:26:00,,0831.1,5.01,0.00,29.2,27.3,00.0,37.7,30.7,29.9,0001.5,0007.41,0013.58,0006.39
2023-05-18 18:27:00,,0831.1,4.98,0.00,29.2,27.3,00.0,37.7,30.7,29.8,0001.1,0007.11,0013.26,0006.11
2023-05-18 18:28:00,,0831.1,5.00,0.00,29.2,27.3,00.0,37.7,30.7,30.0,0001.4,0006.88,0013.17,0005.85
2023-05-18 18:29:00,,0831.1,5.00,0.00,29.1,27.3,00.0,37.7,30.7,30.4,0001.8,0006.66,0013.04,0005.68
2023-05-18 18:30:00,,0831.1,5.00,0.00,29.1,27.3,00.0,37.7,30.7,31.2,0002.7,0006.54,0012.90,0005.59
2023-05-18 18:31:00,,0831.1,5.01,0.00,29.1,27.3,00.0,37.7,30.7,31.1,0003.1,0006.46,0012.88,0005.53
2023-05-18 18:32:00,,0831.1,5.00,0.00,29.1,27.3,00.0,37.7,30.7,31.6,0003.4,0006.34,0012.69,0005.42
2023-05-18 18:33:00,,0831.1,4.99,0.00,29.1,27.4,00.0,37.6,30.7,32.2,0002.5,0006.21,0012.35,0005.30
2023-05-18 18:34:00,,0831.1,4.99,0.00,29.1,27.4,00.0,37.6,30.7,32.0,0001.6,0006.17,0011.37,0005.25
2023-05-18 18:35:00,,0831.1,5.01,0.00,29.1,27.4,00.0,37.6,30.6,32.0,0000.9,0006.14,0011.25,0005.24
2023-05-18 18:36:00,,0831.1,5.01,0.00,29.1,27.4,00.0,37.6,30.7,31.8,0000.4,0006.22,0011.07,0005.32
2023-05-18 18:37:00,,0831.0,4.99,0.00,29.1,27.3,00.0,37.6,30.7,31.9,0000.4,0006.34,0011.17,0005.46
2023-05-18 18:38:00,,0831.0,4.99,0.00,29.1,27.4,00.0,37.6,30.6,31.9,0000.1,0006.47,0011.16,0005.63
2023-05-18 18:39:00,,0830.9,5.00,0.00,29.1,27.4,00.0,37.6,30.6,32.4,-000.3,0006.65,0011.20,0005.83
2023-05-18 18:40:00,,0831.0,5.00,0.00,29.1,27.4,00.0,37.6,30.6,32.4,-000.3,0006.88,0010.79,0006.05
2023-05-18 18:41:00,,0830.9,5.01,0.00,29.1,27.4,00.0,37.6,30.6,32.5,-000.4,0007.11,0010.86,0006.30
2023-05-18 18:42:00,,0831.0,5.01,0.00,29.1,27.4,00.0,37.6,30.7,32.7,-000.6,0007.37,0011.21,0006.54
2023-05-18 18:43:00,,0831.1,4.99,0.00,29.1,27.4,00.0,37.6,30.7,32.1,-000.6,0007.63,0011.47,0006.80
2023-05-18 18:44:00,,0831.1,4.99,0.00,29.1,27.4,00.0,37.6,30.7,32.0,-000.1,0007.90,0011.70,0007.08
2023-05-18 18:45:00,,0831.1,5.01,0.00,29.1,27.4,00.0,37.6,30.7,32.2,-000.5,0008.13,0011.83,0007.36
2023-05-18 18:46:00,,0831.1,5.00,0.00,29.1,27.4,00.0,37.6,30.7,32.0,-000.7,0008.39,0012.07,0007.63
2023-05-18 18:47:00,,0831.1,5.00,0.00,29.1,27.5,00.0,37.6,30.7,32.3,-000.9,0008.66,0012.32,0007.90
2023-05-18 18:48:00,,0831.1,4.99,0.00,29.1,27.5,00.0,37.6,30.7,33.4,-001.1,0008.87,0012.51,0008.14
2023-05-18 18:49:00,,0831.1,4.99,0.00,29.1,27.5,00.0,37.6,30.7,33.2,-001.0,0009.11,0012.85,0008.35
2023-05-18 18:50:00,,0831.1,5.01,0.00,29.1,27.5,00.0,37.6,30.7,32.8,-000.7,0009.26,0013.00,0008.51
2023-05-18 18:51:00,,0831.2,5.01,0.00,29.1,27.5,00.0,37.6,30.7,32.9,-000.6,0009.39,0013.23,0008.63
2023-05-18 18:52:00,,0831.1,4.98,0.00,29.1,27.5,00.0,37.6,30.7,33.2,-000.5,0009.51,0013.61,0008.74
2023-05-18 18:53:00,,0831.1,5.00,0.00,29.1,27.5,00.0,37.6,30.7,33.5,-000.6,0009.60,0013.54,0008.85
2023-05-18 18:54:00,,0831.1,5.01,0.00,29.1,27.6,00.0,37.6,30.8,32.6,-000.6,0009.65,0013.67,0008.89
2023-05-18 18:55:00,,0831.2,5.01,0.00,29.1,27.6,00.0,37.6,30.8,32.1,-000.8,0009.63,0013.90,0008.88
2023-05-18 18:56:00,,0831.1,4.99,0.00,29.1,27.6,00.0,37.6,30.8,32.3,-000.4,0009.63,0013.94,0008.84
2023-05-18 18:57:00,,0831.1,4.98,0.00,29.2,27.6,00.0,37.6,30.8,33.0,-000.0,0009.60,0013.98,0008.78
2023-05-18 18:58:00,,0831.1,5.00,0.00,29.2,27.6,00.0,37.6,30.8,32.7,0000.6,0009.54,0013.95,0008.69
2023-05-18 18:59:00,,0831.1,5.01,0.00,29.2,27.7,00.0,37.6,30.8,32.6,0001.1,0009.49,0013.91,0008.62
